Date String (YYYY-MM-DD hh:mm:ss) UTC,Instrument flags,Ambient pressure (hPa),Sample flow (lpm),Bypass flow (lpm),Sample temperature (°C),Ambient temperature (°C),ASC tube jacket temperature (°C),LED temperature (°C),Box temperature (°C),Sample RH (%),Span deviation,Mass concentration (μg/m³),Mass concentration (μg/m³),Mass concentration (μg/m³)
DateTimeUTC,F1_M11,P_M11,Q1_M11,Q2_M11,T1_M11,T2_M11,T3_M11,T4_M11,T5_M11,U1_M11,ZSPAN_M11,X2_M11,X0_M11,X1_M11
2023-03-01 12:00:00,,0816.1,5.00,0.00,22.3,20.9,00.0,30.9,23.9,05.1,0000.0,0001.03,0001.88,0000.67
2023-03-01 12:01:00,,0816.0,4.99,0.00,22.2,20.8,00.0,30.9,23.9,05.2,0000.0,0001.03,0001.86,0000.68
2023-03-01 12:02:00,,0815.9,5.01,0.00,22.2,20.7,00.0,30.9,23.9,05.3,0000.0,0001.03,0001.84,0000.70
2023-03-01 12:03:00,,0815.7,5.00,0.00,22.2,20.6,00.0,30.9,23.9,05.3,0000.0,0001.06,0001.87,0000.73
2023-03-01 12:04:00,,0815.8,5.01,0.00,22.2,20.6,00.0,30.9,23.8,05.4,0000.0,0001.08,0001.88,0000.75
2023-03-01 12:05:00,,0815.9,4.99,0.00,22.1,20.5,00.0,30.9,23.8,05.4,0000.0,0001.09,0001.88,0000.77
2023-03-01 12:06:00,,0815.7,5.01,0.00,22.1,20.5,00.0,30.9,23.8,05.4,0000.0,0001.12,0001.95,0000.79
2023-03-01 12:07:00,,0815.4,5.01,0.00,22.1,20.4,00.0,30.9,23.7,05.4,0000.0,0001.08,0002.05,0000.79
2023-03-01 12:08:00,,0815.5,5.00,0.00,22.1,21.3,00.0,30.9,23.9,05.4,0000.0,0001.00,0001.98,0000.78
2023-03-01 12:09:00,,0815.7,4.97,0.00,22.3,22.4,00.0,30.9,24.2,05.3,0000.0,0000.99,0001.73,0000.80
2023-03-01 12:10:00,,0816.0,5.00,0.00,22.4,23.1,00.0,30.9,24.4,05.3,0000.0,0001.02,0001.82,0000.81
2023-03-01 12:11:00,,0816.0,5.00,0.00,22.4,22.6,00.0,30.9,24.3,05.3,0000.0,0001.04,0001.87,0000.81
2023-03-01 12:12:00,,0815.9,4.97,0.00,22.4,22.2,00.0,31.0,24.2,05.4,0000.0,0001.10,0001.97,0000.81
2023-03-01 12:13:00,,0815.5,5.00,0.00,22.4,21.8,00.0,31.0,24.2,05.4,0000.0,0001.11,0001.98,0000.81
2023-03-01 12:14:00,,0815.4,5.00,0.00,22.4,21.5,00.0,31.0,24.1,05.4,0000.0,0001.09,0001.99,0000.79
2023-03-01 12:15:00,,0815.4,4.99,0.00,22.4,21.3,00.0,31.0,24.1,05.2,0000.0,0001.13,0002.11,0000.78
2023-03-01 12:16:00,,0815.4,5.00,0.00,22.3,21.1,00.0,31.0,24.0,05.1,0000.0,0001.15,0002.18,0000.78
2023-03-01 12:17:00,,0815.4,5.01,0.00,22.3,20.9,00.0,31.0,24.0,05.1,0000.0,0001.17,0002.72,0000.78
2023-03-01 12:18:00,,0815.4,5.00,0.00,22.3,20.8,00.0,31.0,23.9,05.1,0000.0,0001.20,0002.71,0000.79
2023-03-01 12:19:00,,0815.8,5.00,0.00,22.3,20.7,00.0,31.0,23.9,05.2,0000.0,0001.24,0002.99,0000.80
2023-03-01 12:20:00,,0815.9,5.00,0.00,22.2,20.6,00.0,31.0,23.9,05.3,0000.0,0001.28,0003.13,0000.80
2023-03-01 12:21:00,,0815.9,5.01,0.00,22.2,20.5,00.0,31.0,23.9,05.4,0000.0,0001.32,0003.26,0000.80
2023-03-01 12:22:00,,0816.0,4.99,0.00,22.2,20.4,00.0,31.0,23.8,05.3,0000.0,0001.31,0003.25,0000.81
2023-03-01 12:23:00,,0815.9,5.00,0.00,22.2,20.3,00.0,31.0,23.8,05.2,0000.0,0001.27,0003.17,0000.81
2023-03-01 12:24:00,,0816.1,5.00,0.00,22.2,21.1,00.0,30.9,23.9,05.3,0000.0,0001.24,0004.82,0000.80
2023-03-01 12:25:00,,0816.0,4.95,0.00,22.3,22.3,00.0,30.9,24.2,05.3,0000.0,0001.25,0004.90,0000.81
2023-03-01 12:26:00,,0816.0,5.02,0.00,22.4,23.0,00.0,31.0,24.4,05.2,0000.0,0001.22,0004.78,0000.80
2023-03-01 12:27:00,,0816.0,5.01,0.00,22.5,22.5,00.0,31.0,24.4,05.2,0000.0,0001.19,0004.72,0000.81
2023-03-01 12:28:00,,0816.0,4.99,0.00,22.4,22.0,00.0,31.0,24.2,05.1,0000.0,0001.18,0004.40,0000.80
2023-03-01 12:29:00,,0816.1,5.01,0.00,22.4,21.6,00.0,31.1,24.2,05.0,0000.0,0001.16,0004.18,0000.78
2023-03-01 12:30:00,,0816.0,5.00,0.00,22.4,21.3,00.0,31.1,24.1,05.0,0000.0,0001.20,0003.86,0000.77
2023-03-01 12:31:00,,0816.0,5.00,0.00,22.4,21.0,00.0,31.1,24.0,05.0,0000.0,0001.19,0003.78,0000.77
2023-03-01 12:32:00,,0816.1,4.99,0.00,22.3,20.8,00.0,31.1,24.0,04.9,0000.0,0001.16,0003.69,0000.77
2023-03-01 12:33:00,,0816.2,5.01,0.00,22.3,20.6,00.0,31.1,23.9,04.9,0000.0,0001.11,0003.55,0000.77
2023-03-01 12:34:00,,0816.0,5.02,0.00,22.3,20.5,00.0,31.0,23.9,04.9,0000.0,0001.11,0003.58,0000.76
2023-03-01 12:35:00,,0816.1,5.00,0.00,22.2,20.4,00.0,31.0,23.9,04.9,0000.0,0001.15,0002.23,0000.76
2023-03-01 12:36:00,,0816.2,5.00,0.00,22.2,20.3,00.0,31.0,23.8,04.8,0000.0,0001.16,0001.96,0000.76
2023-03-01 12:37:00,,0816.1,4.99,0.00,22.2,20.3,00.0,31.0,23.8,04.7,0000.0,0001.16,0001.92,0000.76
2023-03-01 12:38:00,,0816.1,5.03,0.00,22.2,21.3,00.0,31.0,24.0,04.8,0000.0,0001.15,0001.88,0000.75
2023-03-01 12:39:00,,0815.6,4.99,0.00,22.3,22.5,00.0,31.0,24.3,04.9,0000.0,0001.14,0001.83,0000.75
2023-03-01 12:40:00,,0815.6,4.97,0.00,22.5,23.1,00.0,31.0,24.5,04.8,0000.0,0001.11,0001.74,0000.76
2023-03-01 12:41:00,,0815.6,4.99,0.00,22.5,22.6,00.0,31.0,24.4,05.0,0000.0,0001.04,0001.66,0000.76
2023-03-01 12:42:00,,0815.7,4.99,0.00,22.5,22.1,00.0,31.1,24.3,05.1,0000.0,0001.07,0001.85,0000.76
2023-03-01 12:43:00,,0815.7,4.96,0.00,22.5,21.7,00.0,31.1,24.2,05.1,0000.0,0001.10,0001.97,0000.76
2023-03-01 12:44:00,,0815.8,5.00,0.00,22.4,21.4,00.0,31.1,24.2,05.1,0000.0,0001.13,0002.65,0000.78
2023-03-01 12:45:00,,0815.7,5.01,0.00,22.4,21.1,00.0,31.1,24.1,05.4,0000.0,0001.16,0004.41,0000.79
2023-03-01 12:46:00,,0815.8,5.00,0.00,22.4,21.0,00.0,31.1,24.0,05.7,0000.0,0001.23,0004.66,0000.80
2023-03-01 12:47:00,,0815.8,5.00,0.00,22.3,20.8,00.0,31.1,24.0,05.7,0000.0,0001.27,0005.16,0000.82
2023-03-01 12:48:00,,0815.8,5.00,0.00,22.3,20.7,00.0,31.1,24.0,05.7,0000.0,0001.29,0006.04,0000.85
2023-03-01 12:49:00,,0815.8,4.99,0.00,22.3,20.6,00.0,31.1,23.9,05.6,0000.0,0001.36,0006.69,0000.88
2023-03-01 12:50:00,,0815.8,5.00,0.00,22.3,20.5,00.0,31.1,23.9,05.7,0000.0,0001.39,0007.26,0000.91
2023-03-01 12:51:00,,0815.9,5.00,0.00,22.2,20.5,00.0,31.1,23.9,05.7,0000.0,0001.42,0007.33,0000.92
2023-03-01 12:52:00,,0815.9,5.00,0.00,22.2,20.4,00.0,31.0,23.8,05.7,0000.0,0001.50,0007.41,0000.95
2023-03-01 12:53:00,,0815.9,4.99,0.00,22.2,20.4,00.0,31.0,23.8,05.7,0000.0,0001.53,0007.40,0000.98
2023-03-01 12:54:00,,0815.9,5.01,0.00,22.2,21.4,00.0,31.0,24.0,05.7,0000.0,0001.59,0007.46,0001.00
2023-03-01 12:55:00,,0815.9,5.02,0.00,22.3,22.4,00.0,31.0,24.3,05.6,0000.0,0001.59,0006.87,0001.01
2023-03-01 12:56:00,,0815.9,5.02,0.00,22.4,22.9,00.0,31.0,24.4,05.6,0000.0,0001.59,0005.14,0001.04
2023-03-01 12:57:00,,0815.8,5.00,0.00,22.5,22.5,00.0,31.1,24.3,05.6,0000.0,0001.51,0004.86,0001.05
2023-03-01 12:58:00,,0815.8,5.01,0.00,22.5,22.1,00.0,31.1,24.3,05.6,0000.0,0001.45,0004.23,0001.06
2023-03-01 12:59:00,,0815.8,4.99,0.00,22.5,21.7,00.0,31.1,24.2,05.5,0000.0,0001.46,0003.45,0001.07
